Fremont, MI

6:52 AM EDT on September 20, 2019 (GMT -0400)
Fremont

Weather History for KFFX - June, 2019

Change the Weather History Date:

Saturday, June 8, 2019

  Actual Average (WUND) Record (WUND)
Temperature  
Mean Temperature 69 °F -  
Max Temperature 82 °F - - (-1)
Min Temperature 56 °F - - (-1)
Cooling Degree Days 4    
Growing Degree Days 19 (Base 50)    
Moisture  
Dew Point 45 °F    
Average Humidity 43    
Maximum Humidity 69    
Minimum Humidity 24    
Precipitation  
Precipitation 0.00 in - - ()
Sea Level Pressure  
Sea Level Pressure 30.06 in    
Wind  
Wind Speed 7 mph ()    
Max Wind Speed 14 mph    
Max Gust Speed 21 mph    
Visibility 10.0 miles    
Events      
Averages and records for this station are not official NWS values.
T = Trace of Precipitation, MM = Missing Value Source: Averaged Metar Reports

Daily Weather History Graph

Daily Weather History Graph

Search for Another Location

Airport or City:

Astronomy

Jun. 08, 2019 Rise Set
Actual Time 6:03 AM EDT 9:22 PM EDT
Civil Twilight 5:28 AM EDT 9:58 PM EDT
Nautical Twilight 4:42 AM EDT 10:44 PM EDT
Astronomical Twilight 3:45 AM EDT 11:41 PM EDT
Moon 11:34 AM EDT (6/8) 1:20 AM EDT (6/8)
Length of Visible Light 16h 30m
Length of Day
15h 19m
Waxing Crescent, 32% of the Moon is Illuminated
Jun 8
Waxing Crescent
Jun 10
First Quarter
Jun 17
Full
Jun 25
Last Quarter
Jul 2
New

Hourly Weather History & Observations

Time (EDT) Temp. Dew Point Humidity Pressure Visibility Wind Dir Wind Speed Gust Speed Precip Events Conditions
12:17 AM 65.3 °F 46.0 °F 50% 30.05 in 10.0 mi East 5.8 mph - N/A   Clear
12:36 AM 64.8 °F 46.2 °F 51% 30.05 in 10.0 mi East 5.8 mph - N/A   Clear
12:55 AM 63.5 °F 46.8 °F 54% 30.05 in 10.0 mi East 6.9 mph - N/A   Clear
1:15 AM 63.7 °F 47.1 °F 55% 30.05 in 10.0 mi East 4.6 mph - N/A   Clear
1:38 AM 62.2 °F 46.8 °F 57% 30.05 in 10.0 mi East 4.6 mph - N/A   Clear
1:56 AM 59.9 °F 47.1 °F 63% 30.05 in 10.0 mi East 6.9 mph - N/A   Clear
2:15 AM 60.3 °F 47.1 °F 62% 30.05 in 10.0 mi East 6.9 mph - N/A   Clear
2:16 AM 60.4 °F 46.9 °F 61% 30.06 in 10.0 mi East 8.1 mph - N/A   Clear
2:35 AM 58.8 °F 46.8 °F 64% 30.05 in 10.0 mi East 8.1 mph - N/A   Clear
2:36 AM 58.6 °F 46.8 °F 65% 30.05 in 10.0 mi East 8.1 mph - N/A   Clear
2:58 AM 59.0 °F 47.1 °F 65% 30.05 in 10.0 mi East 8.1 mph - N/A   Clear
3:17 AM 59.9 °F 46.0 °F 60% 30.05 in 10.0 mi East 6.9 mph - N/A   Clear
3:35 AM 59.7 °F 46.4 °F 61% 30.05 in 10.0 mi East 5.8 mph - N/A   Clear
3:55 AM 59.0 °F 45.9 °F 62% 30.05 in 10.0 mi East 5.8 mph - N/A   Clear
3:56 AM 58.8 °F 45.9 °F 62% 30.05 in 10.0 mi East 5.8 mph - N/A   Clear
4:15 AM 58.1 °F 45.9 °F 64% 30.05 in 10.0 mi East 4.6 mph - N/A   Clear
4:20 AM 58.1 °F 45.7 °F 63% 30.06 in 10.0 mi East 4.6 mph - N/A   Clear
4:38 AM 57.4 °F 45.9 °F 65% 30.06 in 10.0 mi East 3.5 mph - N/A   Clear
4:56 AM 57.2 °F 45.7 °F 65% 30.06 in 10.0 mi East 3.5 mph - N/A   Clear
5:15 AM 56.8 °F 45.7 °F 66% 30.06 in 10.0 mi East 4.6 mph - N/A   Clear
5:16 AM 56.8 °F 45.7 °F 66% 30.06 in 10.0 mi East 4.6 mph - N/A   Clear
5:35 AM 56.8 °F 46.4 °F 68% 30.06 in 10.0 mi East 8.1 mph - N/A   Clear
5:59 AM 56.7 °F 46.6 °F 69% 30.06 in 10.0 mi East 6.9 mph - N/A   Clear
6:17 AM 57.2 °F 46.4 °F 67% 30.06 in 10.0 mi East 6.9 mph - N/A   Clear
6:35 AM 57.4 °F 46.0 °F 66% 30.07 in 10.0 mi East 6.9 mph - N/A   Clear
6:55 AM 58.1 °F 46.4 °F 65% 30.07 in 10.0 mi East 8.1 mph - N/A   Clear
7:15 AM 59.0 °F 46.6 °F 63% 30.08 in 10.0 mi East 8.1 mph - N/A   Clear
7:38 AM 60.8 °F 46.4 °F 59% 30.08 in 10.0 mi East 9.2 mph - N/A   Clear
7:55 AM 61.7 °F 46.0 °F 56% 30.09 in 10.0 mi East 9.2 mph - N/A   Clear
8:15 AM 62.8 °F 46.4 °F 55% 30.10 in 10.0 mi East 6.9 mph - N/A   Clear
8:16 AM 63.0 °F 46.4 °F 55% 30.09 in 10.0 mi East 5.8 mph - N/A   Clear
8:35 AM 64.0 °F 46.9 °F 54% 30.09 in 10.0 mi East 6.9 mph - N/A   Clear
8:59 AM 65.5 °F 46.8 °F 51% 30.10 in 10.0 mi East 6.9 mph - N/A   Clear
9:17 AM 67.3 °F 47.5 °F 49% 30.11 in 10.0 mi East 9.2 mph - N/A   Clear
9:35 AM 68.7 °F 46.9 °F 46% 30.11 in 10.0 mi East 9.2 mph - N/A   Clear
9:36 AM 68.9 °F 46.9 °F 45% 30.11 in 10.0 mi East 9.2 mph - N/A   Clear
9:55 AM 70.3 °F 47.5 °F 44% 30.11 in 10.0 mi East 8.1 mph - N/A   Clear
10:15 AM 72.1 °F 47.3 °F 41% 30.10 in 10.0 mi East 10.4 mph - N/A   Clear
10:20 AM 72.0 °F 46.8 °F 41% 30.10 in 10.0 mi East 9.2 mph - N/A   Clear
10:38 AM 73.4 °F 45.9 °F 37% 30.10 in 10.0 mi East 10.4 mph 17.3 mph N/A   Clear
10:56 AM 75.0 °F 45.7 °F 35% 30.10 in 10.0 mi East 9.2 mph 16.1 mph N/A   Clear
11:15 AM 76.1 °F 43.2 °F 31% 30.09 in 10.0 mi ESE 10.4 mph 19.6 mph N/A   Clear
11:16 AM 76.1 °F 43.5 °F 31% 30.09 in 10.0 mi SE 9.2 mph 19.6 mph N/A   Clear
11:59 AM 78.6 °F 41.5 °F 27% 30.09 in 10.0 mi ESE 11.5 mph 18.4 mph N/A   Clear
12:17 PM 79.3 °F 41.4 °F 26% 30.09 in 10.0 mi ESE 11.5 mph 17.3 mph N/A   Clear
12:35 PM 79.7 °F 41.7 °F 26% 30.09 in 10.0 mi ESE 10.4 mph - N/A   Clear
12:36 PM 79.7 °F 41.5 °F 26% 30.08 in 10.0 mi ESE 11.5 mph 16.1 mph N/A   Clear
12:55 PM 80.1 °F 41.7 °F 26% 30.08 in 10.0 mi SE 10.4 mph 20.7 mph N/A   Clear
1:15 PM 81.5 °F 42.4 °F 25% 30.08 in 10.0 mi East 13.8 mph 19.6 mph N/A   Clear
1:38 PM 82.2 °F 42.1 °F 24% 30.07 in 10.0 mi ESE 9.2 mph 17.3 mph N/A   Clear
1:56 PM 82.0 °F 43.9 °F 26% 30.07 in 10.0 mi East 11.5 mph 20.7 mph N/A   Clear
2:15 PM 81.3 °F 43.0 °F 26% 30.06 in 10.0 mi ESE 12.7 mph 16.1 mph N/A   Clear
2:16 PM 81.3 °F 43.3 °F 26% 30.06 in 10.0 mi ESE 11.5 mph 16.1 mph N/A   Clear
2:35 PM 82.2 °F 43.9 °F 26% 30.06 in 10.0 mi East 10.4 mph 18.4 mph N/A   Clear
2:59 PM 81.9 °F 44.4 °F 27% 30.05 in 10.0 mi East 13.8 mph 20.7 mph N/A   Clear
3:17 PM 81.5 °F 43.3 °F 26% 30.05 in 10.0 mi East 11.5 mph 16.1 mph N/A   Clear
3:35 PM 80.4 °F 45.1 °F 29% 30.05 in 10.0 mi East 10.4 mph - N/A   Clear
3:55 PM 81.1 °F 44.4 °F 27% 30.05 in 10.0 mi ESE 10.4 mph 17.3 mph N/A   Clear
4:15 PM 82.0 °F 44.8 °F 27% 30.05 in 10.0 mi East 12.7 mph 18.4 mph N/A   Clear
4:38 PM 82.0 °F 45.0 °F 27% 30.04 in 10.0 mi East 9.2 mph - N/A   Clear
4:56 PM 81.5 °F 44.4 °F 27% 30.03 in 10.0 mi East 11.5 mph - N/A   Clear
5:15 PM 81.0 °F 45.3 °F 28% 30.03 in 10.0 mi East 13.8 mph 18.4 mph N/A   Clear
5:16 PM 81.0 °F 45.1 °F 28% 30.03 in 10.0 mi East 13.8 mph 18.4 mph N/A   Clear
5:35 PM 80.4 °F 45.0 °F 29% 30.03 in 10.0 mi East 10.4 mph 17.3 mph N/A   Clear
5:36 PM 80.2 °F 45.0 °F 29% 30.03 in 10.0 mi East 10.4 mph 17.3 mph N/A   Clear
5:59 PM 82.0 °F 46.8 °F 29% 30.03 in 10.0 mi East 9.2 mph - N/A   Clear
6:17 PM 80.8 °F 45.7 °F 29% 30.03 in 10.0 mi East 9.2 mph 17.3 mph N/A   Clear
6:35 PM 80.8 °F 46.0 °F 29% 30.03 in 10.0 mi East 10.4 mph 19.6 mph N/A   Clear
6:55 PM 80.6 °F 45.9 °F 29% 30.03 in 10.0 mi ESE 12.7 mph 18.4 mph N/A   Clear
6:56 PM 80.6 °F 45.7 °F 29% 30.03 in 10.0 mi SE 10.4 mph 18.4 mph N/A   Clear
7:15 PM 79.9 °F 45.5 °F 30% 30.03 in 10.0 mi ESE 8.1 mph 16.1 mph N/A   Clear
7:20 PM 79.7 °F 46.2 °F 31% 30.03 in 10.0 mi ESE 9.2 mph 16.1 mph N/A   Clear
7:38 PM 78.8 °F 46.9 °F 32% 30.02 in 10.0 mi ESE 5.8 mph - N/A   Clear
7:56 PM 78.8 °F 47.1 °F 33% 30.02 in 10.0 mi ESE 5.8 mph - N/A   Clear
8:15 PM 78.8 °F 47.3 °F 33% 30.02 in 10.0 mi ESE 8.1 mph - N/A   Clear
8:35 PM 77.9 °F 44.4 °F 30% 30.02 in 10.0 mi ESE 12.7 mph 17.3 mph N/A   Clear
8:59 PM 76.1 °F 44.8 °F 33% 30.03 in 10.0 mi East 6.9 mph - N/A   Clear
9:17 PM 75.0 °F 44.2 °F 33% 30.03 in 10.0 mi ESE 5.8 mph - N/A   Clear
9:36 PM 73.6 °F 44.1 °F 35% 30.03 in 10.0 mi East 3.5 mph - N/A   Clear
9:55 PM 72.5 °F 43.5 °F 35% 30.03 in 10.0 mi East 3.5 mph - N/A   Clear
9:56 PM 72.5 °F 43.5 °F 35% 30.03 in 10.0 mi East 3.5 mph - N/A   Clear
10:15 PM 69.8 °F 44.6 °F 40% 30.03 in 10.0 mi East 4.6 mph - N/A   Clear
10:38 PM 70.3 °F 45.5 °F 41% 30.03 in 10.0 mi East 4.6 mph - N/A   Clear
10:56 PM 69.6 °F 45.5 °F 42% 30.04 in 10.0 mi ESE 5.8 mph - N/A   Clear
11:15 PM 69.1 °F 45.5 °F 43% 30.04 in 10.0 mi East 3.5 mph - N/A   Clear
11:35 PM 68.2 °F 45.9 °F 45% 30.04 in 10.0 mi ESE 4.6 mph - N/A   Clear
11:59 PM 67.5 °F 46.4 °F 47% 30.04 in 10.0 mi ESE 4.6 mph - N/A   Clear